Location: Unspecified
(0.0000°N, 0.0000°E)
Time: 23:26:04
(UTC+00:00)

Envisat - Pass Details

Date: 23 January 2021
Orbit: 764 x 766 km, 98.1° (Epoch: 16 January)

Event Time Altitude Azimuth Distance (km) Brightness Sun altitude
Rises 18:32:48 0° 206° (SSW) 3,228 7.0 -4.9°
Reaches altitude 10° 18:36:50 10° 238° (WSW) 2,298 7.1 -5.9°
Maximum altitude 18:38:27 11° 257° (WSW) 2,195 7.1 -6.2°
Drops below altitude 10° 18:40:04 10° 276° (W) 2,295 6.7 -6.6°
Sets 18:44:07 0° 309° (NW) 3,216 6.7 -7.6°
